Location: Martley
(52.2333°N, 2.3667°W)
Time: 08:54:35
(UTC+00:00)

Cosmos 1975 Rocket - Pass Details

Date: 11 December 2019
Orbit: 604 x 633 km, 82.5° (Epoch: 26 January)

Event Time Altitude Azimuth Distance (km) Brightness Sun altitude
Rises 06:45:00 0° 352° (N) 2,915 6.2 -11.8°
Reaches altitude 10° 06:47:17 10° 358° (N) 2,009 5.4 -11.5°
Maximum altitude 06:51:38 51° 74° (ENE) 798 4.0 -10.9°
Drops below altitude 10° 06:55:58 10° 151° (SSE) 2,008 6.5 -10.3°
Sets 06:58:16 0° 157° (SSE) 2,914 7.3 -9.9°
